[[{"header":{"parameterUnit":"m.s-1","parameterCategory":1,"la1":30.2991,"la2":30.254,"lo1":-89.0895,"lo2":-89.0444,"dy":0.0017,"dx":0.0017,"nx":28,"ny":28,"refTime":"2026-02-10T09:00:00:Z","depth":0,"parameterNumber":2,"parameterNumberName":"U-component_of_WINDS"},"data":[0,0,0,0,0,0,0,0,0,0,0,0,0,0,0,0,0,0,0,0,0,0,0,0,0,0,0,0,0,0,0,0,0,0,0,0,0,0,0,0,0,0,0,0,0,0,0,0,0,0,0,0,0,0,0,0,0,0,0.3489,0.349,0,0.3557,0.3558,0.3558,0.3544,0.3543,0.3541,0.354,0.3612,0.3615,0.3618,0,0,0,0,0,0,0,0,0,0,0,0,0,0.3347,0.335,0.3489,0.349,0.349,0.3557,0.3558,0.3559,0.3544,0.3543,0.3541,0.354,0.3611,0.3615,0.3618,0,0,0,0,0,0,0,0,0,0,0,0,0,0.3411,0.3351,0.3489,0.3491,0.3492,0.3557,0.3558,0.3559,0.3545,0.3543,0.3541,0.3539,0.361,0.3614,0.3619,0.3686,0,0,0.3633,0.3635,0,0,0,0,0,0,0,0,0.3408,0.3417,0.349,0.3491,0.3492,0.354,0.3534,0.3601,0.3545,0.3525,0.354,0.3538,0.359,0.3596,0.3613,0.3689,0.3692,0.3633,0.3636,0.3638,0.364,0,0,0,0,0,0,0,0.3403,0.3414,0.3516,0.3491,0.3492,0.3489,0.3496,0.3547,0.3567,0.3526,0.3525,0.3534,0.359,0.3608,0.3614,0.3693,0.3633,0.3637,0.364,0.3642,0.3827,0.3829,0,0,0,0,0,0,0.3398,0.341,0.3514,0.3518,0.3444,0.3493,0.3501,0.3527,0.3566,0.3571,0.3535,0.3533,0.3601,0.3609,0.3617,0.3698,0.3638,0.3643,0.3645,0.3825,0.3828,0.383,0,0,0,0,0,0,0.3395,0.3407,0.3511,0.3464,0.3477,0.3498,0.3526,0.3529,0.3547,0.3573,0.3577,0.355,0.36,0.361,0.3668,0.37,0.3645,0.3649,0.3823,0.3826,0.3829,0.386,0,0,0,0,0,0,0.3391,0.3406,0.3432,0.3464,0.3479,0.3561,0.3528,0.3532,0.3555,0.3553,0.3588,0.3592,0.36,0.3662,0.3673,0.3706,0.3652,0.382,0.3824,0.3828,0.3857,0.3864,0.3871,0,0,0,0,0,0.3386,0.3438,0.3433,0.3445,0.3511,0.3563,0.3571,0.3578,0.3558,0.3584,0.36,0.3591,0.3695,0.3668,0.368,0.3715,0.3818,0.3823,0.3827,0.3854,0.3863,0.3871,0,0,0,0,0,0,0.3409,0.3442,0.3437,0.3501,0.3529,0.356,0.3593,0.3588,0.3622,0.3619,0.3626,0.3634,0.3693,0.371,0.3679,0.3781,0.3753,0.3761,0.3769,0.3778,0.3785,0.378,0.3656,0,0,0,0,0,0.3422,0.346,0.3487,0.3542,0.3556,0.3572,0.3595,0.3597,0.3627,0.3639,0.3659,0.3689,0.3728,0.3754,0.3791,0.3858,0.3866,0.3888,0.3895,0.3901,0.3908,0.3945,0.3956,0.3846,0.3846,0.3846,0,0,0.3448,0.3471,0.3495,0.3547,0.3569,0.3609,0.3582,0.3626,0.3656,0.3646,0.3702,0.3718,0.3751,0.3814,0.3843,0.383,0.394,0.3907,0.3912,0.3916,0.3951,0.3962,0.3971,0.3849,0.3848,0.3848,0,0,0.3518,0.3538,0.3586,0.3608,0.3642,0.3652,0.3663,0.3695,0.3705,0.3761,0.3754,0.379,0.3857,0.3881,0.3902,0.3979,0.3973,0.3991,0.4029,0.4065,0.4074,0.4082,0.411,0.412,0.3998,0.3998,0.3998,0,0.3547,0.3607,0.3611,0.3656,0.3679,0.367,0.3719,0.374,0.3784,0.3801,0.3785,0.3868,0.389,0.3959,0.3978,0.3995,0.4008,0.3988,0.4072,0.408,0.4087,0.4114,0.4125,0.4,0.4,0.4,0.3999,0,0.3641,0.3683,0.3718,0.376,0.3786,0.3833,0.3845,0.3871,0.3871,0.3883,0.394,0.3966,0.4008,0.4024,0.4025,0.4094,0.4084,0.407,0.4042,0.41,0.4125,0.4136,0.4003,0.4002,0.4002,0.4001,0,0,0.3729,0.3772,0.3785,0.3804,0.3839,0.3872,0.3917,0.3958,0.3981,0.4011,0.4051,0.4107,0.4094,0.4118,0.4121,0.4152,0.4213,0.4134,0.4135,0.4149,0.429,0.4301,0.4313,0.4208,0.421,0.4211,0.4288,0,0.3802,0.3883,0.3888,0.3961,0.4,0.3991,0.4031,0.4057,0.407,0.4105,0.4118,0.4158,0.4138,0.4152,0.4183,0.4199,0.4241,0.4193,0.4245,0.4247,0.4238,0.4327,0.4339,0.441,0.4298,0.4299,0.4301,0,0.3899,0.3932,0.4008,0.4038,0.4055,0.409,0.4128,0.4161,0.4191,0.4197,0.4223,0.4222,0.4269,0.4238,0.4304,0.4271,0.4292,0.4303,0.4306,0.4313,0.4278,0.4336,0.4432,0.4443,0.4316,0.4315,0.4314,0,0.3956,0.4019,0.4073,0.409,0.4125,0.4151,0.4167,0.4195,0.4219,0.4251,0.4267,0.4305,0.4326,0.4356,0.4365,0.4341,0.443,0.44,0.4438,0.4438,0.4458,0.4457,0.456,0.447,0.447,0.447,0.447,0,0.4038,0.4086,0.4099,0.4133,0.4186,0.4191,0.4243,0.4258,0.4282,0.4319,0.4313,0.4348,0.4357,0.4393,0.44,0.4453,0.4463,0.447,0.4472,0.4471,0.4471,0.4486,0.4482,0.4473,0.4472,0.4471,0.4471,0,0.4112,0.4123,0.4181,0.421,0.4218,0.4256,0.4281,0.4313,0.4324,0.437,0.4381,0.4399,0.4441,0.4452,0.4503,0.4507,0.4571,0.4567,0.4561,0.4561,0.4598,0.4595,0.4716,0.4733,0.4631,0.4632,0.4632,0,0.4164,0.4201,0.4233,0.4257,0.4274,0.4312,0.4336,0.4342,0.4368,0.4404,0.4432,0.4473,0.4507,0.4574,0.4592,0.463,0.4628,0.4668,0.4634,0.4633,0.463,0.4628,0.4632,0.4675,0.4676,0.4677,0.4678,0,0.4257,0.426,0.4295,0.4332,0.4361,0.439,0.4418,0.4438,0.4448,0.4477,0.452,0.4545,0.4596,0.4638,0.4677,0.4694,0.4688,0.4688,0.4699,0.47,0.4695,0.4699,0.4579,0.4686,0.4685,0.4684,0.4684,0.4683,0.4322,0.4354,0.4381,0.442,0.4442,0.4468,0.45,0.4514,0.455,0.4592,0.4593,0.4639,0.4667,0.4719,0.4738,0.4774,0.4763,0.4778,0.4783,0.4787,0.479,0.4688,0.4781,0.4781,0.4781,0.4781,0.4781,0,0.4415,0.4432,0.4467,0.4507,0.4537,0.4528,0.4558,0.4585,0.4626,0.4652,0.4685,0.4734,0.4773,0.4793,0.4833,0.4858,0.4857,0.4869,0.4867,0.4872,0.4798,0.4785,0.4869,0.4869,0.4869,0.4869,0.4869,0.4869,0.4466,0.452,0.4527,0.4591,0.4607,0.4652,0.4671,0.4695,0.4716,0.4771,0.4804,0.4816,0.484,0.4881,0.4917,0.4922,0.4937,0.4951,0.4954,0.4886,0.4877,0.4868,0.4856,0.4954,0.4954,0.5025,0.5025,0.5026]},{"header":{"parameterUnit":"m.s-1","parameterCategory":1,"la1":30.2991,"la2":30.254,"lo1":-89.0895,"lo2":-89.0444,"dy":0.0017,"dx":0.0017,"nx":28,"ny":28,"refTime":"2026-02-10T09:00:00:Z","depth":0,"parameterNumber":3,"parameterNumberName":"V-component_of_WINDS"},"data":[0,0,0,0,0,0,0,0,0,0,0,0,0,0,0,0,0,0,0,0,0,0,0,0,0,0,0,0,0,0,0,0,0,0,0,0,0,0,0,0,0,0,0,0,0,0,0,0,0,0,0,0,0,0,0,0,0,0,1.1428,1.1428,0,1.1435,1.1435,1.1435,1.1431,1.1431,1.1431,1.143,1.1437,1.1438,1.1438,0,0,0,0,0,0,0,0,0,0,0,0,0,1.1412,1.1412,1.1428,1.1428,1.1429,1.1435,1.1435,1.1435,1.1431,1.1431,1.1431,1.143,1.1437,1.1438,1.1438,0,0,0,0,0,0,0,0,0,0,0,0,0,1.1419,1.1412,1.1428,1.1427,1.1427,1.1435,1.1435,1.1435,1.1431,1.1431,1.143,1.143,1.1437,1.1438,1.1438,1.1448,0,0,1.144,1.144,0,0,0,0,0,0,0,0,1.1418,1.1419,1.1427,1.1427,1.1427,1.1432,1.1432,1.1439,1.1431,1.143,1.143,1.143,1.1436,1.1437,1.1438,1.1448,1.1448,1.144,1.144,1.1441,1.1441,0,0,0,0,0,0,0,1.1418,1.1419,1.1431,1.1427,1.1427,1.1426,1.1427,1.1433,1.1434,1.143,1.1429,1.143,1.1436,1.1438,1.1439,1.1448,1.144,1.1441,1.1441,1.1441,1.1464,1.1464,0,0,0,0,0,0,1.1417,1.1419,1.1431,1.1431,1.1422,1.1427,1.1427,1.1431,1.1434,1.1434,1.143,1.143,1.1437,1.1438,1.1439,1.1449,1.1441,1.1441,1.1441,1.1464,1.1464,1.1464,0,0,0,0,0,0,1.1417,1.1419,1.1431,1.1425,1.1426,1.1427,1.1431,1.1431,1.1433,1.1435,1.1435,1.1432,1.1437,1.1438,1.1445,1.1449,1.1441,1.1442,1.1463,1.1464,1.1464,1.147,0,0,0,0,0,0,1.1417,1.1418,1.1422,1.1425,1.1427,1.1437,1.1431,1.1431,1.1434,1.1433,1.1437,1.1437,1.1437,1.1444,1.1446,1.145,1.1442,1.1463,1.1464,1.1464,1.1469,1.1471,1.1471,0,0,0,0,0,1.1416,1.1424,1.1423,1.1424,1.1431,1.1437,1.1438,1.1438,1.1434,1.1438,1.1439,1.1437,1.1448,1.1445,1.1446,1.1451,1.1463,1.1464,1.1464,1.1469,1.147,1.1471,0,0,0,0,0,0,1.1422,1.1424,1.1423,1.1432,1.1434,1.1437,1.1441,1.1439,1.1443,1.1442,1.1442,1.1442,1.1449,1.1451,1.1447,1.1459,1.1455,1.1456,1.1458,1.146,1.1461,1.146,1.1443,0,0,0,0,0,1.1425,1.1429,1.1431,1.1439,1.144,1.144,1.1443,1.1442,1.1445,1.1446,1.1447,1.145,1.1454,1.1457,1.1461,1.1469,1.147,1.1473,1.1474,1.1475,1.1476,1.1479,1.1481,1.1467,1.1467,1.1467,0,0,1.143,1.1432,1.1435,1.144,1.1442,1.1446,1.1441,1.1447,1.145,1.1447,1.1453,1.1454,1.1457,1.1465,1.1468,1.1466,1.148,1.1476,1.1476,1.1477,1.148,1.1482,1.1483,1.1467,1.1467,1.1467,0,0,1.1442,1.1443,1.145,1.1451,1.1454,1.1454,1.1455,1.1457,1.1458,1.1464,1.1461,1.1465,1.1472,1.1474,1.1476,1.1486,1.1485,1.1488,1.1493,1.1497,1.1498,1.1499,1.1502,1.1503,1.1489,1.1489,1.1489,0,1.1448,1.1455,1.1453,1.1458,1.146,1.1457,1.1463,1.1464,1.1468,1.147,1.1467,1.1475,1.1477,1.1484,1.1487,1.1489,1.149,1.1488,1.1498,1.1499,1.15,1.1503,1.1504,1.1489,1.1489,1.1489,1.1489,0,1.1461,1.1466,1.1471,1.1474,1.1476,1.1482,1.1481,1.1484,1.1482,1.1482,1.1488,1.149,1.1493,1.1495,1.1494,1.1502,1.15,1.1498,1.1494,1.1501,1.1504,1.1505,1.1489,1.1489,1.1489,1.1489,0,0,1.1479,1.148,1.1481,1.1482,1.1484,1.1487,1.1492,1.1495,1.1497,1.15,1.1503,1.1509,1.1506,1.1508,1.1507,1.151,1.1517,1.1507,1.1507,1.1509,1.1525,1.1527,1.1528,1.1516,1.1516,1.1516,1.1525,0,1.149,1.1498,1.1496,1.1505,1.1508,1.1504,1.1508,1.151,1.1509,1.1512,1.1512,1.1516,1.1512,1.1513,1.1516,1.1516,1.1521,1.1515,1.1519,1.1519,1.1518,1.153,1.1532,1.154,1.1526,1.1526,1.1526,0,1.1505,1.1507,1.1515,1.1515,1.1516,1.152,1.1522,1.1525,1.1526,1.1525,1.1527,1.1525,1.1529,1.1524,1.153,1.1526,1.1528,1.1528,1.1528,1.1528,1.1523,1.153,1.1543,1.1544,1.1528,1.1528,1.1528,0,1.1515,1.152,1.1525,1.1526,1.1527,1.1529,1.1529,1.153,1.1531,1.1533,1.1534,1.1536,1.1538,1.1539,1.1538,1.1535,1.1543,1.1539,1.1543,1.1543,1.1545,1.1545,1.1558,1.1546,1.1546,1.1546,1.1546,0,1.1528,1.1533,1.153,1.1533,1.1539,1.1536,1.1541,1.1541,1.1541,1.1544,1.1541,1.1544,1.1541,1.1544,1.1543,1.1547,1.1548,1.1547,1.1547,1.1547,1.1547,1.1548,1.1548,1.1546,1.1546,1.1546,1.1546,0,1.1541,1.154,1.1545,1.1544,1.1544,1.1548,1.1547,1.155,1.1549,1.1552,1.1553,1.1551,1.1554,1.1552,1.1555,1.1554,1.1559,1.1558,1.1559,1.1559,1.1563,1.1562,1.1576,1.1578,1.1565,1.1566,1.1566,0,1.155,1.1553,1.1553,1.1554,1.1554,1.1557,1.1558,1.1555,1.1557,1.1557,1.156,1.1562,1.1563,1.1567,1.1566,1.1568,1.1567,1.1572,1.1567,1.1567,1.1566,1.1566,1.1566,1.1573,1.1573,1.1573,1.1573,0,1.1564,1.1563,1.1565,1.1566,1.1567,1.1568,1.1569,1.157,1.1567,1.1569,1.1571,1.1572,1.1574,1.1576,1.1577,1.1577,1.1574,1.1574,1.1575,1.1576,1.1576,1.1576,1.1561,1.1574,1.1574,1.1574,1.1574,1.1574,1.1575,1.1578,1.1577,1.1579,1.1579,1.1579,1.1581,1.158,1.1582,1.1583,1.1581,1.1584,1.1583,1.1584,1.1585,1.1586,1.1584,1.1586,1.1586,1.1587,1.1587,1.1576,1.1587,1.1587,1.1587,1.1586,1.1586,0,1.1589,1.1588,1.159,1.159,1.1592,1.1588,1.1588,1.159,1.1592,1.1592,1.1593,1.1595,1.1596,1.1595,1.1596,1.1597,1.1596,1.1598,1.1598,1.1597,1.1589,1.1588,1.1599,1.1599,1.1599,1.1599,1.1599,1.1599,1.1597,1.1601,1.1599,1.1602,1.1601,1.1603,1.1604,1.1604,1.1603,1.1606,1.1606,1.1605,1.1604,1.1605,1.1606,1.1606,1.1606,1.1608,1.1607,1.1599,1.1598,1.1597,1.1596,1.1608,1.1608,1.1615,1.1616,1.1616]}]]